Location: ??????????
(54.8537°N, 38.8755°E)
Time: 17:10:35
(UTC+00:00)

Vanguard 3 - Pass Details

Date: 19 September 2024
Orbit: 507 x 3223 km, 33.3° (Epoch: 11 October)

Event Time Altitude Azimuth Distance (km) Brightness Sun altitude
Rises 00:51:33 0° 181° (S) 6,303 11.4 -18.9°
Reaches altitude 10° 00:58:40 10° 161° (SSE) 5,742 11.3 -18.1°
Maximum altitude 01:06:38 15° 134° (SE) 5,653 11.6 -17.1°
Drops below altitude 10° 01:15:04 10° 108° (ESE) 6,154 12.2 -16.0°
Sets 01:23:09 0° 90° (E) 7,047 13.2 -14.9°
